This is the latest recevied weather packets stored in our database for station/object VK2BLR. If no packets are shown the sender has not sent any weather packets the latest 10 day(s).
| Time | Temp. | Humidity | Pressure | Rain* | Wind** | Luminosity | Snow |
|---|---|---|---|---|---|---|---|
| 1787649690 | 14.44° C | 93% | 1015.1 hPa | 0 mm | - | - | - |
| 1787648791 | 14.44° C | 92% | 1015.1 hPa | 0 mm | - | - | - |
| 1787647891 | 14.44° C | 92% | 1015 hPa | 0.25 mm | - | - | - |
| 1787646991 | 13.89° C | 91% | 1014.7 hPa | 1.27 mm | - | - | - |
| 1787646091 | 14.44° C | 91% | 1014.7 hPa | 2.79 mm | - | - | - |
| 1787645192 | 14.44° C | 92% | 1014.5 hPa | 3.81 mm | - | - | - |
| 1787644291 | 15° C | 93% | 1014.6 hPa | 4.57 mm | - | - | - |
| 1787643391 | 15° C | 93% | 1014.6 hPa | 6.1 mm | - | - | - |
| 1787642491 | 15° C | 93% | 1014.6 hPa | 7.11 mm | - | - | - |
| 1787641592 | 15.56° C | 94% | 1014.7 hPa | 6.86 mm | - | - | - |
| 1787640691 | 15.56° C | 93% | 1014.5 hPa | 6.35 mm | - | - | - |
| 1787639790 | 15.56° C | 93% | 1014.2 hPa | 4.32 mm | - | - | - |
| 1787638892 | 15.56° C | 93% | 1013.9 hPa | 1.52 mm | - | - | - |
| 1787637991 | 15.56° C | 92% | 1013.9 hPa | 0.51 mm | - | - | - |
| 1787637090 | 15.56° C | 92% | 1014 hPa | 0.25 mm | - | - | - |
| 1787636190 | 16.11° C | 93% | 1013.7 hPa | 0 mm | - | - | - |
| 1787635291 | 16.11° C | 93% | 1013.8 hPa | 0 mm | - | - | - |
| 1787634391 | 16.11° C | 93% | 1013.9 hPa | 0.25 mm | - | - | - |
| 1787633490 | 16.11° C | 93% | 1013.7 hPa | 1.78 mm | - | - | - |
| 1787632591 | 16.11° C | 93% | 1013.8 hPa | 2.79 mm | - | - | - |
| 1787631692 | 15.56° C | 93% | 1014 hPa | 2.79 mm | - | - | - |
| 1787630791 | 15.56° C | 93% | 1014.1 hPa | 2.79 mm | - | - | - |
| 1787629891 | 15.56° C | 92% | 1014.2 hPa | 1.78 mm | - | - | - |
| 1787628991 | 15.56° C | 92% | 1014.4 hPa | 1.02 mm | - | - | - |
| 1787628092 | 15.56° C | 92% | 1014.3 hPa | 1.02 mm | - | - | - |
* Rain latest hour (hover to see other rain measurements)
** Current wind speed in m/s (hover to see current wind gust speed)